User: anonymous   Login
Location: Unspecified
(0.0000°N, 0.0000°E)
Time: 18:17:09
(UTC+02:00)
Language:

Iridium 15 - Orbit

View from above orbital plane
View from above orbital plane
View from above satellite
View from above satellite

Ground track
Ground track

The orbit data is extracted from the following two-line orbital elements,

1 24869U 97034A   17292.46466297  .00000133  00000-0  36949-4 0  9999
2 24869  86.4180 330.0927 0001949  86.8478 273.2943 14.38609657 61800
Epoch (UTC): 19 October 2017 11:09:06
Eccentricity: 0.0001949
inclination: 86.4180°
perigee height: 762 km
apogee height: 764 km
right ascension of ascending node: 330.0927°
argument of perigee: 86.8478°
revolutions per day: 14.38609657
mean anomaly at epoch: 273.2943°
orbit number at epoch: 6180

The dashed part of the orbit path shows where the satellite is in the earth's shadow,  

DLR